Tehachapi, CA

2:41 AM PDT on June 24, 2017 (GMT -0700)
Tehachapi Municipal

Weather History for KTSP - December, 2011

Change the Weather History Date:

Friday, December 9, 2011

  Actual Average Record
Temperature  
Mean Temperature 46 °F -  
Max Temperature 57 °F 52 °F 62 °F (2012)
Min Temperature 35 °F 32 °F 23 °F (2013)
Degree Days  
Heating Degree Days 19    
Moisture  
Dew Point 13 °F    
Average Humidity 28    
Maximum Humidity 41    
Minimum Humidity 17    
Precipitation  
Precipitation 0.00 in - - ()
Sea Level Pressure  
Sea Level Pressure 30.22 in    
Wind  
Wind Speed 12 mph (ESE)    
Max Wind Speed 21 mph    
Max Gust Speed 31 mph    
Visibility 9 miles    
Events      
Averages and records for this station are not official NWS values.
T = Trace of Precipitation, MM = Missing Value Source: NWS Daily Summary

Daily Weather History Graph

Daily Weather History Graph

Search for Another Location

Airport or City:

Trip Planner

Search our weather history database for the weather conditions in past years. The results will help you decide how hot, cold, wet, or windy it might be!

Date:

Astronomy

Dec. 09, 2011 Rise Set
Actual Time 6:50 AM PST 4:41 PM PST
Civil Twilight 6:22 AM PST 5:09 PM PST
Nautical Twilight 5:50 AM PST 5:41 PM PST
Astronomical Twilight 5:19 AM PST 6:12 PM PST
Moon 4:09 PM PST (12/9) 6:01 AM PST (12/9)
Length of Visible Light 10h 47m
Length of Day
9h 51m
Waxing Gibbous, 99% of the Moon is Illuminated
Dec 9
Waxing Gibbous
Dec 10
Full
Dec 17
Last Quarter
Dec 24
New
Dec 31
First Quarter

Hourly Weather History & Observations

Time (PST) Temp. Windchill Dew Point Humidity Pressure Visibility Wind Dir Wind Speed Gust Speed Precip Events Conditions
12:15 AM 41.0 °F 34.3 °F 12.2 °F 31% 30.19 in 10.0 mi East 11.5 mph - N/A   Clear
12:35 AM 41.0 °F 34.7 °F 12.2 °F 31% 30.19 in 10.0 mi ESE 10.4 mph - N/A   Clear
12:55 AM 41.0 °F 34.7 °F 12.2 °F 31% 30.18 in 10.0 mi ESE 10.4 mph - N/A   Clear
1:15 AM 41.0 °F 35.2 °F 12.2 °F 31% 30.19 in 10.0 mi East 9.2 mph - N/A   Clear
1:35 AM 37.4 °F 32.1 °F 12.2 °F 36% 30.19 in 10.0 mi East 6.9 mph - N/A   Clear
2:15 AM 39.2 °F 33.6 °F 12.2 °F 33% 30.20 in 10.0 mi East 8.1 mph - N/A   Clear
2:35 AM 37.4 °F 32.1 °F 12.2 °F 36% 30.19 in 10.0 mi East 6.9 mph - N/A   Clear
2:55 AM 35.6 °F 31.7 °F 14.0 °F 41% 30.19 in 10.0 mi East 4.6 mph - N/A   Clear
3:15 AM 37.4 °F 32.1 °F 12.2 °F 36% 30.20 in 10.0 mi East 6.9 mph - N/A   Clear
3:35 AM 37.4 °F 32.1 °F 14.0 °F 38% 30.19 in 10.0 mi ENE 6.9 mph - N/A   Clear
3:55 AM 39.2 °F 32.0 °F 14.0 °F 36% 30.19 in 10.0 mi ESE 11.5 mph - N/A   Clear
4:15 AM 37.4 °F 29.8 °F 14.0 °F 38% 30.19 in 10.0 mi SE 11.5 mph - N/A   Clear
4:35 AM 39.2 °F 33.0 °F 14.0 °F 36% 30.19 in 10.0 mi SE 9.2 mph - N/A   Clear
4:55 AM 39.2 °F 33.6 °F 14.0 °F 36% 30.19 in 10.0 mi East 8.1 mph - N/A   Clear
5:15 AM 41.0 °F 35.2 °F 14.0 °F 33% 30.20 in 10.0 mi East 9.2 mph - N/A   Clear
5:35 AM 39.2 °F 32.5 °F 14.0 °F 36% 30.20 in 10.0 mi SE 10.4 mph - N/A   Clear
5:55 AM 39.2 °F 33.0 °F 14.0 °F 36% 30.21 in 10.0 mi East 9.2 mph - N/A   Clear
6:15 AM 37.4 °F 30.3 °F 14.0 °F 38% 30.22 in 10.0 mi East 10.4 mph - N/A   Clear
6:35 AM 37.4 °F 30.3 °F 14.0 °F 38% 30.22 in 10.0 mi East 10.4 mph - N/A   Clear
6:55 AM 39.2 °F 32.0 °F 14.0 °F 36% 30.23 in 10.0 mi East 11.5 mph - N/A   Clear
7:15 AM 41.0 °F 33.9 °F 14.0 °F 33% 30.23 in 10.0 mi ESE 12.7 mph - N/A   Clear
7:35 AM 44.6 °F 39.7 °F 14.0 °F 29% 30.24 in 9.0 mi ESE 9.2 mph - N/A   Clear
7:55 AM 46.4 °F 40.1 °F 14.0 °F 27% 30.24 in 8.0 mi ESE 15.0 mph 19.6 mph N/A   Clear
8:15 AM 46.4 °F 41.1 °F 15.8 °F 29% 30.24 in 10.0 mi ESE 11.5 mph - N/A   Clear
8:35 AM 48.2 °F - 14.0 °F 25% 30.24 in 9.0 mi ESE 17.3 mph 21.9 mph N/A   Clear
8:55 AM 50.0 °F - 14.0 °F 24% 30.24 in 9.0 mi SE 15.0 mph 21.9 mph N/A   Clear
9:15 AM 51.8 °F - 15.8 °F 24% 30.25 in 8.0 mi SE 16.1 mph 21.9 mph N/A   Clear
9:35 AM 53.6 °F - 15.8 °F 22% 30.26 in 9.0 mi SE 17.3 mph 25.3 mph N/A   Clear
9:55 AM 53.6 °F - 15.8 °F 22% 30.26 in 8.0 mi SE 18.4 mph 31.1 mph N/A   Clear
10:15 AM 53.6 °F - 14.0 °F 21% 30.26 in 7.0 mi SE 20.7 mph 27.6 mph N/A   Clear
10:35 AM 53.6 °F - 14.0 °F 21% 30.25 in 9.0 mi ESE 19.6 mph 26.5 mph N/A   Clear
11:15 AM 55.4 °F - 15.8 °F 21% 30.25 in 8.0 mi SE 20.7 mph 26.5 mph N/A   Clear
11:35 AM 55.4 °F - 15.8 °F 21% 30.25 in 7.0 mi SE 16.1 mph 24.2 mph N/A   Clear
11:55 AM 55.4 °F - 15.8 °F 21% 30.24 in 8.0 mi ESE 18.4 mph 25.3 mph N/A   Clear
12:15 PM 55.4 °F - 14.0 °F 20% 30.23 in 8.0 mi SE 17.3 mph 25.3 mph N/A   Clear
12:35 PM 57.2 °F - 15.8 °F 20% 30.22 in 9.0 mi ESE 16.1 mph 23.0 mph N/A   Clear
12:55 PM 57.2 °F - 14.0 °F 18% 30.21 in 9.0 mi SE 17.3 mph 26.5 mph N/A   Clear
1:15 PM 57.2 °F - 14.0 °F 18% 30.21 in 9.0 mi SE 18.4 mph 23.0 mph N/A   Clear
1:35 PM 55.4 °F - 14.0 °F 20% 30.21 in 8.0 mi SE 18.4 mph 24.2 mph N/A   Clear
1:55 PM 55.4 °F - 14.0 °F 20% 30.20 in 9.0 mi SE 17.3 mph 20.7 mph N/A   Clear
2:15 PM 57.2 °F - 14.0 °F 18% 30.20 in 9.0 mi SE 15.0 mph 21.9 mph N/A   Clear
2:35 PM 57.2 °F - 12.2 °F 17% 30.20 in 8.0 mi SE 16.1 mph 19.6 mph N/A   Clear
2:55 PM 55.4 °F - 10.4 °F 17% 30.20 in 9.0 mi SE 16.1 mph 20.7 mph N/A   Clear
3:15 PM 55.4 °F - 10.4 °F 17% 30.20 in 9.0 mi ESE 15.0 mph 19.6 mph N/A   Clear
3:35 PM 53.6 °F - 12.2 °F 19% 30.20 in 9.0 mi SE 13.8 mph 19.6 mph N/A   Clear
3:55 PM 53.6 °F - 12.2 °F 19% 30.20 in 9.0 mi SE 13.8 mph - N/A   Clear
4:15 PM 50.0 °F - 14.0 °F 24% 30.21 in 9.0 mi SE 10.4 mph - N/A   Clear
4:35 PM 46.4 °F 42.9 °F 14.0 °F 27% 30.21 in 10.0 mi East 6.9 mph - N/A   Clear
4:55 PM 44.6 °F 39.7 °F 14.0 °F 29% 30.21 in 9.0 mi East 9.2 mph - N/A   Clear
5:15 PM 44.6 °F 39.7 °F 14.0 °F 29% 30.21 in 10.0 mi East 9.2 mph - N/A   Clear
5:35 PM 42.8 °F 37.5 °F 12.2 °F 29% 30.21 in 10.0 mi East 9.2 mph - N/A   Clear
5:55 PM 39.2 °F 33.0 °F 12.2 °F 33% 30.22 in 10.0 mi East 9.2 mph - N/A   Clear
6:15 PM 41.0 °F 35.8 °F 12.2 °F 31% 30.22 in 10.0 mi East 8.1 mph - N/A   Clear
6:35 PM 44.6 °F 39.7 °F 10.4 °F 25% 30.22 in 10.0 mi East 9.2 mph - N/A   Clear
6:55 PM 44.6 °F 39.7 °F 10.4 °F 25% 30.23 in 10.0 mi ESE 9.2 mph - N/A   Clear
7:15 PM 41.0 °F 35.2 °F 10.4 °F 29% 30.23 in 10.0 mi East 9.2 mph - N/A   Clear
7:35 PM 39.2 °F 33.0 °F 10.4 °F 31% 30.23 in 10.0 mi East 9.2 mph - N/A   Clear
7:55 PM 41.0 °F 34.7 °F 10.4 °F 29% 30.24 in 10.0 mi East 10.4 mph - N/A   Clear
8:15 PM 39.2 °F 35.0 °F 10.4 °F 31% 30.24 in 10.0 mi East 5.8 mph - N/A   Clear
8:35 PM 39.2 °F 33.0 °F 10.4 °F 31% 30.24 in 10.0 mi East 9.2 mph - N/A   Clear
8:55 PM 39.2 °F 32.0 °F 10.4 °F 31% 30.24 in 10.0 mi East 11.5 mph - N/A   Clear
9:15 PM 39.2 °F 32.0 °F 10.4 °F 31% 30.24 in 10.0 mi East 11.5 mph - N/A   Clear
9:35 PM 39.2 °F 32.0 °F 10.4 °F 31% 30.24 in 10.0 mi East 11.5 mph - N/A   Clear
9:55 PM 41.0 °F 34.3 °F 12.2 °F 31% 30.24 in 10.0 mi East 11.5 mph - N/A   Clear
10:15 PM 41.0 °F 33.9 °F 12.2 °F 31% 30.24 in 10.0 mi East 12.7 mph - N/A   Clear
10:35 PM 41.0 °F 34.7 °F 12.2 °F 31% 30.25 in 10.0 mi East 10.4 mph - N/A   Clear
10:55 PM 39.2 °F 33.0 °F 10.4 °F 31% 30.24 in 10.0 mi East 9.2 mph - N/A   Clear
11:15 PM 32.0 °F 24.8 °F 10.4 °F 41% 30.24 in 10.0 mi ESE 8.1 mph - N/A   Clear
11:35 PM 32.0 °F 25.6 °F 10.4 °F 41% 30.24 in 10.0 mi ESE 6.9 mph - N/A   Clear
11:55 PM 35.6 °F 29.9 °F 10.4 °F 35% 30.24 in 10.0 mi ESE 6.9 mph - N/A   Clear